Weather in Nikolayevka

Russia / Primorsky Krai     43°53′16″N   132°26′51″E
temp.,
°C
wind,
m/s
gust,
m/s
humid.,
%
clouds,
%
prec.,
mm/h
press.,
hPa
HPBL,
m
26 january, tue
tue2601:00−12e119595 0.0 102721
04:00−7se128698 0.0 102524
07:00−3nnw0190100 0.0 102226
10:00−2se1390100 0.0 1020142
13:00+1ssw1499100 0.1 1018240
16:000ssw19100100 1.2 1015598
19:00−1w4899100 5.1 1015403
22:00−2w2398100 6.8 101580
27 january, wed
wed2701:00−5nw3997100 0.4 1015357
04:00−8nnw4990100 0.7 1017594
07:00−15w238164 0.0 101926
10:00−14wsw278432 0.0 1021242
13:00−10wnw57780 0.0 1022901
16:00−10wnw587012 0.0 10221094
19:00−16nnw11780 0.0 102420
22:00−18sse11769 0.0 102520
28 january, thu
thu2801:00−19se117718 0.0 102520
04:00−19ese127826 0.0 102420
07:00−19e228199 0.0 102221
10:00−17e228270 0.0 102172
13:00−12ne3581100 0.0 1016302
16:00−12nne4794100 1.5 1011495
19:00−13n71195100 1.9 1008439
22:00−14n81295100 4.5 1006530
29 january, fri
fri2901:00−15n91694100 2.5 1006624
04:00−16n111893100 5.1 1006876
07:00−18n101794100 1.4 10081002
10:00−20nnw101796100 2.3 10121066
13:00−20nnw101592100 0.6 10141060
16:00−20n81388100 0.8 1015980
19:00−21n51385100 0.1 1019770
22:00−25n358694 0.1 102179
30 january, sat
sat3001:00−29nne11990 0.0 102319
04:00−31ene111006 0.0 102519
07:00−30e12950 0.0 102519
10:00−26ene11891 0.0 102567
13:00−20n117979 0.0 1023293
16:00−17nw217875 0.0 1022311
19:00−23nnw119422 0.0 102320
22:00−26nne119749 0.0 102420